Tracking 28520 objects as of 1-Mar-2024
HD Live streaming from Space Station
objects crossing your sky now

STARLINK-5231

Track STARLINK-5231 now!
10-day predictions
STARLINK-5231 is classified as:


NORAD ID: 54182
Int'l Code: 2022-141AB
Perigee: 545.8 km
Apogee: 547.9 km
Inclination: 53.2 °
Period: 95.4 minutes
Semi major axis: 6917 km
RCS: Unknown
Launch date: October 28, 2022
Source: United States (US)
Launch site: AIR FORCE WESTERN TEST RANGE (AFWTR)
Your satellite tracking list
Your tracking list is empty




NASA's NSSDC Master Catalog

Two Line Element Set (TLE):
1 54182U 22141AB  24060.24774552  .00000709  00000-0  62623-4 0  9997
2 54182  53.2178  53.2366 0001532  86.5445 273.5722 15.08839641 74651
Source of the keplerian elements: AFSPC